Location: Bridgewater
(44.3670°N, 64.5170°W)
Time: 15:49:22
(UTC-03:00)

Amateur Radio Satellites - All Passes

Search period start: 20 July 2017 15:19
Search period end: 21 July 2017 15:19
Location: Bridgewater, 44.3670°N, 64.5170°W

Satellite Date Start Highest point End Downlink Frequencies (MHz)
Time Altitude Azimuth
UKube-1 20 Jul 15:28:00 15:32:14 51° 288° (WNW) 15:36:25 .
BEESAT 2 20 Jul 15:42:37 15:46:37 87° 119° (ESE) 15:50:41 435.950
SO-50 20 Jul 15:42:59 15:46:39 23° 41° (NE) 15:50:20 436.795
RS-15 20 Jul 15:59:15 16:09:05 30° 102° (ESE) 16:19:00 29.354- 29.394
O/OREOS (USA 219) 20 Jul 15:59:48 16:02:41 17° 100° (E) 16:05:33 437.305
AO-85 20 Jul 16:08:01 16:11:07 21° 318° (NW) 16:14:12 145.980
Gurwin Techsat 1B 20 Jul 16:09:16 16:09:58 10° 274° (W) 16:10:40 435.225
DX 1 20 Jul 16:11:32 16:13:59 15° 299° (WNW) 16:16:25 434.975-435.025
ITAMSAT 1 20 Jul 16:21:17 16:26:23 53° 259° (W) 16:31:31 435.822/435.867
BEESAT 20 Jul 16:33:52 16:38:39 78° 103° (ESE) 16:43:24 436.000
ITUPSAT 1 20 Jul 16:43:27 16:48:14 87° 288° (WNW) 16:53:00 437.325
NO-84 20 Jul 16:44:12 16:46:31 16° 357° (N) 16:48:57 435.350 FM
MOZHAYETS 4 20 Jul 16:44:43 16:49:17 78° 102° (ESE) 16:53:51
AO-7 20 Jul 16:47:14 16:55:04 43° 261° (W) 17:02:59 .
BEESAT 3 20 Jul 16:56:16 16:57:43 12° 327° (NNW) 16:59:11 437.485
PCSat 20 Jul 16:56:57 17:01:42 31° 250° (WSW) 17:06:25 145.827
CUBESAT XI-V 20 Jul 17:05:21 17:09:15 26° 94° (E) 17:13:10 437.345
BEESAT 2 20 Jul 17:22:35 17:24:56 15° 323° (NW) 17:27:19 435.950
SO-50 20 Jul 17:22:58 17:27:25 55° 240° (WSW) 17:31:52 436.795
DOVE 4 20 Jul 17:29:16 17:33:48 45° 70° (ENE) 17:38:37 437.250
CUTE-I 20 Jul 17:31:42 17:35:48 23° 62° (ENE) 17:39:55 437.470
XW-2D 20 Jul 17:34:59 17:37:32 18° 66° (ENE) 17:40:05 145.860 - 145.880
O/OREOS (USA 219) 20 Jul 17:37:17 17:41:39 51° 298° (WNW) 17:46:03 437.305
XW-2B 20 Jul 17:44:28 17:47:22 21° 67° (ENE) 17:50:15 145.730 - 145.750
HO-68 20 Jul 17:48:15 17:52:45 18° 51° (NE) 17:57:14 435.675
XW-2C 20 Jul 18:00:57 18:04:19 33° 71° (ENE) 18:07:43 145.795 - 145.815
KKS-1 20 Jul 18:04:21 18:08:47 56° 101° (E) 18:13:11 437.445
RS-15 20 Jul 18:07:56 18:20:13 84° 305° (NW) 18:32:41 29.354- 29.394
BEESAT 20 Jul 18:13:22 18:15:48 14° 301° (WNW) 18:18:13 436.000
LilacSat-2 20 Jul 18:17:45 18:21:27 56° 74° (ENE) 18:25:10 437.200
NO-84 20 Jul 18:22:02 18:25:05 22° 18° (NNE) 18:28:20 435.350 FM
ITUPSAT 1 20 Jul 18:23:36 18:25:18 12° 303° (WNW) 18:27:01 437.325
MOZHAYETS 4 20 Jul 18:23:45 18:25:50 13° 300° (WNW) 18:27:54
NUDT-PHONESAT 20 Jul 18:29:45 18:33:22 54° 74° (ENE) 18:36:58 437.300
KAITUO 1B 20 Jul 18:36:12 18:39:52 67° 76° (ENE) 18:43:33 145.475/437.950
CUBESAT XI-V 20 Jul 18:42:27 18:46:40 35° 291° (WNW) 18:50:53 437.345
XW-2F 20 Jul 18:42:45 18:46:29 80° 257° (WSW) 18:50:15 145.980 - 146.000
STARS 20 Jul 18:49:06 18:53:32 72° 102° (ESE) 18:57:55 437.465
XW-2D 20 Jul 19:07:59 19:11:28 35° 263° (W) 19:14:57 145.860 - 145.880
DOVE 4 20 Jul 19:08:02 19:11:43 22° 269° (W) 19:15:36 437.250
CUTE-I 20 Jul 19:10:12 19:15:27 55° 260° (W) 19:20:46 437.470
XW-2B 20 Jul 19:18:07 19:21:24 28° 264° (W) 19:24:43 145.730 - 145.750
YUBILEINY 20 Jul 19:19:29 19:27:38 44° 87° (E) 19:35:47 435.215
AAUSAT CUBESAT 2 20 Jul 19:23:03 19:25:27 15° 63° (ENE) 19:27:52 437.432
STRAND 1 20 Jul 19:26:14 19:28:20 12° 88° (E) 19:30:26 437.568
UWE-3 20 Jul 19:29:52 19:33:18 21° 65° (ENE) 19:36:42 435.000/436.395/437.385
HO-68 20 Jul 19:32:13 19:39:23 79° 71° (ENE) 19:46:36 435.675
CUTE 1.7 + AOD 2 20 Jul 19:34:41 19:38:50 66° 74° (ENE) 19:43:01 437.475
XW-2C 20 Jul 19:35:57 19:38:36 18° 267° (W) 19:41:16 145.795 - 145.815
XW-2A 20 Jul 19:36:32 19:39:44 39° 73° (ENE) 19:42:56 145.665 - 145.685
KKS-1 20 Jul 19:42:02 19:44:54 17° 298° (WNW) 19:47:45 437.445
LilacSat-2 20 Jul 19:54:57 19:56:05 11° 270° (W) 19:57:12 437.200
ZACube-1 20 Jul 19:55:32 19:58:55 21° 66° (ENE) 20:02:15 437.345
CUBEBUG 2 20 Jul 19:55:39 20:00:19 60° 74° (ENE) 20:04:55 437.445
SEEDS 20 Jul 19:57:02 20:01:11 74° 74° (ENE) 20:05:20 437.485
NO-84 20 Jul 19:59:07 20:03:05 77° 36° (NE) 20:07:19 435.350 FM
NUDT-PHONESAT 20 Jul 20:06:34 20:07:34 11° 270° (W) 20:08:35 437.300
RS-15 20 Jul 20:23:38 20:34:46 37° 333° (NNW) 20:45:53 29.354- 29.394
STARS 20 Jul 20:27:08 20:29:17 14° 300° (WNW) 20:31:27 437.465
Oscar 11 20 Jul 20:30:35 20:34:24 31° 69° (ENE) 20:38:13 .
AO-73 20 Jul 20:37:48 20:42:08 49° 72° (ENE) 20:46:22 145.935
AAUSAT CUBESAT 2 20 Jul 20:56:30 21:00:29 51° 261° (W) 21:04:31 437.432
STRAND 1 20 Jul 21:03:01 21:08:10 84° 285° (WNW) 21:13:16 437.568
UWE-3 20 Jul 21:05:02 21:09:28 44° 262° (W) 21:13:50 435.000/436.395/437.385
XW-2A 20 Jul 21:11:11 21:12:40 12° 269° (W) 21:14:08 145.665 - 145.685
DELFI C3 20 Jul 21:11:45 21:14:45 21° 67° (ENE) 21:17:47 145.870
CUTE 1.7 + AOD 2 20 Jul 21:13:40 21:15:07 12° 271° (W) 21:16:34 437.475
YUBILEINY 20 Jul 21:16:01 21:24:22 45° 288° (WNW) 21:32:47 435.215
AO-85 20 Jul 21:17:00 21:18:29 12° 33° (NNE) 21:20:01 145.980
EO-88 20 Jul 21:21:23 21:23:44 16° 66° (ENE) 21:26:04 145.990 - 145.960
HO-68 20 Jul 21:22:43 21:27:51 21° 270° (W) 21:32:59 435.675
ZACube-1 20 Jul 21:30:41 21:34:56 41° 262° (W) 21:39:08 437.345
CUBEBUG 2 20 Jul 21:34:25 21:37:16 16° 270° (W) 21:40:06 437.445
SEEDS 20 Jul 21:37:10 21:37:22 10° 272° (W) 21:37:33 437.485
NO-84 20 Jul 21:37:27 21:40:16 18° 233° (SW) 21:43:12 435.350 FM
BEESAT 3 20 Jul 21:53:54 21:56:39 17° 39° (NE) 21:59:23 437.485
UNISAT 6 20 Jul 22:01:52 22:02:55 11° 88° (E) 22:03:59 437.425
Oscar 11 20 Jul 22:06:59 22:10:32 25° 266° (W) 22:14:06 .
AO-73 20 Jul 22:15:42 22:18:36 17° 269° (W) 22:21:30 145.935
FO-29 20 Jul 22:19:01 22:25:57 41° 94° (E) 22:32:07 435.910
Tancredo 1 20 Jul 22:22:08 22:24:43 28° 140° (SE) 22:27:20 437.200
BEESAT 2 20 Jul 22:22:14 22:24:27 14° 36° (NE) 22:26:39 435.950
ISS 20 Jul 22:25:46 22:27:29 14° 133° (SE) 22:29:13 437.550
ESTCUBE 1 20 Jul 22:28:12 22:30:01 12° 59° (ENE) 22:31:51 437.505/2401.250
RS-15 20 Jul 22:41:44 22:52:02 29° 8° (N) 23:02:03 29.354- 29.394
STRAND 1 20 Jul 22:44:24 22:46:32 13° 304° (WNW) 22:48:40 437.568
TIGRISAT 20 Jul 22:45:21 22:49:11 29° 95° (E) 22:52:56 435.000
DELFI C3 20 Jul 22:45:51 22:49:21 31° 264° (W) 22:52:54 145.870
EO-88 20 Jul 22:53:45 22:57:08 36° 262° (W) 23:00:31 145.990 - 145.960
AO-85 20 Jul 22:55:31 22:59:40 63° 53° (NE) 23:04:04 145.980
nSIGHT-1 20 Jul 23:11:05 23:14:05 36° 141° (SE) 23:17:05 .
LO-87 20 Jul 23:14:17 23:17:47 47° 73° (ENE) 23:21:18 145.935 - 145.965
M-CUBED/EXP-1 PRIME 20 Jul 23:22:58 23:27:03 33° 102° (ESE) 23:31:14 437.505
SPROUT 20 Jul 23:28:42 23:30:43 13° 61° (ENE) 23:32:43 437.525
PRISM 20 Jul 23:29:37 23:33:49 82° 104° (ESE) 23:37:59 437.425
BEESAT 3 20 Jul 23:30:39 23:34:39 66° 238° (WSW) 23:38:34 437.485
VELOX 1 20 Jul 23:35:17 23:37:38 14° 61° (ENE) 23:40:00 145.980
UNISAT 6 20 Jul 23:35:48 23:40:12 74° 285° (WNW) 23:44:28 437.425
Tancredo 1 20 Jul 23:57:17 00:00:05 39° 337° (NNW) 00:02:54 437.200
BEESAT 2 20 Jul 23:58:45 00:02:50 85° 54° (NE) 00:06:52 435.950
ISS 21 Jul 00:00:17 00:03:33 84° 332° (NNW) 00:06:49 437.550
ESTCUBE 1 21 Jul 00:01:42 00:06:11 80° 258° (WSW) 00:10:41 437.505/2401.250
FO-29 21 Jul 00:04:01 00:10:57 43° 296° (WNW) 00:17:13 435.910
AIST 2D 21 Jul 00:06:12 00:09:15 28° 96° (E) 00:12:17 435.315
TIGRISAT 21 Jul 00:22:05 00:25:48 27° 293° (WNW) 00:29:26 435.000
AO-85 21 Jul 00:37:09 00:39:39 15° 249° (WSW) 00:42:15 145.980
nSIGHT-1 21 Jul 00:47:25 00:50:28 39° 339° (NNW) 00:53:33 .
UKube-1 21 Jul 00:49:15 00:52:09 18° 63° (ENE) 00:55:03 .
LO-87 21 Jul 00:50:02 00:51:28 12° 270° (W) 00:52:56 145.935 - 145.965
RS-15 21 Jul 00:56:24 01:08:18 52° 40° (NE) 01:19:35 29.354- 29.394
M-CUBED/EXP-1 PRIME 21 Jul 00:57:26 01:01:22 30° 297° (WNW) 01:05:23 437.505
POLYITAN 1 21 Jul 00:59:07 01:03:15 51° 100° (E) 01:07:20 437.675
SPROUT 21 Jul 01:01:46 01:06:03 70° 259° (W) 01:10:22 437.525
50 SAT 21 Jul 01:02:33 01:05:45 40° 72° (ENE) 01:08:59 437.505
DUCHIFAT 1 21 Jul 01:04:14 01:08:18 46° 99° (E) 01:12:17 145.980
PRISM 21 Jul 01:07:22 01:08:26 11° 301° (WNW) 01:09:32 437.425
VELOX 1 21 Jul 01:09:09 01:13:32 67° 258° (WSW) 01:17:58 145.980
QB50P2 21 Jul 01:11:46 01:16:02 78° 102° (ESE) 01:20:14 145.880/145.840
EO-79 21 Jul 01:25:39 01:29:54 81° 287° (WNW) 01:34:05 145.935-145.965
NANOSAT C BR1 21 Jul 01:28:57 01:33:12 83° 283° (WNW) 01:37:23 145.865
DX 1 21 Jul 01:30:36 01:34:55 67° 73° (ENE) 01:39:17 434.975-435.025
Tancredo 1 21 Jul 01:33:47 01:36:03 19° 357° (N) 01:38:20 437.200
ISS 21 Jul 01:37:33 01:40:22 26° 349° (NNW) 01:43:09 437.550
AIST 2D 21 Jul 01:39:48 01:42:17 19° 292° (WNW) 01:44:46 435.315
BUGSAT 1 21 Jul 01:52:50 01:56:50 45° 99° (E) 02:00:45 437.445
O/OREOS (USA 219) 21 Jul 02:06:19 02:10:37 43° 61° (ENE) 02:14:55 437.305
BEESAT 21 Jul 02:06:40 02:09:12 14° 59° (ENE) 02:11:44 436.000
MOZHAYETS 4 21 Jul 02:14:39 02:15:56 11° 58° (ENE) 02:17:13
ITUPSAT 1 21 Jul 02:15:54 02:18:59 17° 61° (ENE) 02:22:04 437.325
UKube-1 21 Jul 02:23:38 02:27:49 49° 260° (W) 02:32:01 .
nSIGHT-1 21 Jul 02:24:53 02:27:29 22° 359° (N) 02:30:03 .
POLYITAN 1 21 Jul 02:36:01 02:38:38 16° 297° (WNW) 02:41:15 437.675
50 SAT 21 Jul 02:37:20 02:38:42 12° 269° (W) 02:40:04 437.505
Gurwin Techsat 1B 21 Jul 02:38:38 02:43:31 35° 97° (E) 02:48:21 435.225
DUCHIFAT 1 21 Jul 02:40:49 02:43:36 18° 296° (WNW) 02:46:22 145.980
QB50P2 21 Jul 02:49:48 02:51:11 11° 300° (WNW) 02:52:34 145.880/145.840
Oscar 19 21 Jul 02:51:16 02:56:26 71° 102° (ESE) 03:01:35 437.125/150
AO-7 21 Jul 02:58:27 02:59:58 11° 84° (E) 03:01:28 .
RS-15 21 Jul 03:09:24 03:21:06 59° 246° (WSW) 03:32:12 29.354- 29.394
Tancredo 1 21 Jul 03:09:29 03:12:07 28° 17° (NNE) 03:14:46 437.200
DX 1 21 Jul 03:09:47 03:11:33 12° 270° (W) 03:13:21 434.975-435.025
ISS 21 Jul 03:14:48 03:17:32 24° 9° (N) 03:20:16 437.550
BUGSAT 1 21 Jul 03:29:08 03:31:50 17° 297° (WNW) 03:34:30 437.445
BEESAT 21 Jul 03:41:34 03:46:21 77° 256° (WSW) 03:51:09 436.000
O/OREOS (USA 219) 21 Jul 03:46:26 03:49:43 20° 259° (WSW) 03:52:59 437.305
MOZHAYETS 4 21 Jul 03:47:45 03:52:21 88° 73° (ENE) 03:56:57
ITUPSAT 1 21 Jul 03:51:34 03:56:19 63° 258° (WSW) 04:01:05 437.325
nSIGHT-1 21 Jul 04:01:31 04:04:31 33° 19° (NNE) 04:07:30 .
CUBESAT XI-V 21 Jul 04:10:06 04:14:06 31° 68° (ENE) 04:18:08 437.345
Gurwin Techsat 1B 21 Jul 04:18:41 04:23:24 33° 294° (WNW) 04:28:05 435.225
Oscar 19 21 Jul 04:31:55 04:35:12 17° 300° (WNW) 04:38:28 437.125/150
ITAMSAT 1 21 Jul 04:32:20 04:37:24 47° 100° (E) 04:42:23 435.822/435.867
Tancredo 1 21 Jul 04:44:47 04:47:42 57° 215° (SW) 04:50:37 437.200
AO-7 21 Jul 04:46:10 04:54:27 60° 104° (ESE) 05:02:40 .
ISS 21 Jul 04:51:10 04:54:25 66° 28° (NNE) 04:57:41 437.550
KKS-1 21 Jul 05:03:33 05:07:58 64° 73° (ENE) 05:12:25 437.445
RS-15 21 Jul 05:26:52 05:30:35 12° 269° (W) 05:34:16 29.354- 29.394
YUBILEINY 21 Jul 05:27:40 05:34:25 24° 62° (ENE) 05:41:05 435.215
DOVE 4 21 Jul 05:28:05 05:30:30 13° 86° (E) 05:32:52 437.250
nSIGHT-1 21 Jul 05:37:52 05:41:01 48° 217° (SW) 05:44:08 .
STARS 21 Jul 05:46:45 05:51:11 77° 74° (ENE) 05:55:38 437.465
CUBESAT XI-V 21 Jul 05:47:27 05:51:27 29° 265° (W) 05:55:27 437.345
PCSat 21 Jul 05:57:15 06:01:41 26° 109° (ESE) 06:06:09 145.827
ITAMSAT 1 21 Jul 06:12:23 06:16:34 25° 297° (WNW) 06:20:43 435.822/435.867
ISS 21 Jul 06:28:16 06:30:36 18° 225° (SW) 06:32:55 437.550
XW-2D 21 Jul 06:39:06 06:41:52 19° 93° (E) 06:44:37 145.860 - 145.880
AO-7 21 Jul 06:39:27 06:46:49 36° 304° (WNW) 06:54:08 .
KKS-1 21 Jul 06:42:42 06:44:57 14° 270° (W) 06:47:12 437.445
STRAND 1 21 Jul 06:42:47 06:46:46 23° 63° (ENE) 06:50:46 437.568
XW-2B 21 Jul 06:48:45 06:51:50 24° 95° (E) 06:54:56 145.730 - 145.750
HO-68 21 Jul 07:01:07 07:03:54 12° 85° (E) 07:06:39 435.675
DOVE 4 21 Jul 07:03:29 07:08:50 86° 285° (WNW) 07:14:02 437.250
XW-2C 21 Jul 07:05:31 07:09:03 38° 98° (E) 07:12:33 145.795 - 145.815
CUTE 1.7 + AOD 2 21 Jul 07:21:08 07:21:16 10° 88° (E) 07:21:23 437.475
LilacSat-2 21 Jul 07:23:15 07:27:01 68° 101° (ESE) 07:30:47 437.200
YUBILEINY 21 Jul 07:23:32 07:32:21 83° 264° (W) 07:41:04 435.215
CUTE-I 21 Jul 07:25:25 07:30:41 52° 100° (E) 07:35:53 437.470
STARS 21 Jul 07:26:52 07:28:03 11° 271° (W) 07:29:14 437.465
NUDT-PHONESAT 21 Jul 07:32:01 07:35:40 60° 100° (E) 07:39:17 437.300
SO-50 21 Jul 07:38:48 07:42:47 31° 116° (ESE) 07:46:46 436.795
KAITUO 1B 21 Jul 07:39:25 07:43:08 78° 101° (ESE) 07:46:50 145.475/437.950
PCSat 21 Jul 07:39:31 07:44:47 50° 307° (NW) 07:50:05 145.827
SEEDS 21 Jul 07:41:27 07:42:34 11° 88° (E) 07:43:41 437.485
XW-2F 21 Jul 07:47:06 07:50:50 67° 285° (WNW) 07:54:33 145.980 - 146.000
CUBEBUG 2 21 Jul 07:48:06 07:48:37 10° 87° (E) 07:49:08 437.445
XW-2D 21 Jul 08:12:46 08:16:06 31° 290° (WNW) 08:19:26 145.860 - 145.880
STRAND 1 21 Jul 08:20:37 08:25:36 50° 260° (W) 08:30:38 437.568
XW-2B 21 Jul 08:22:52 08:25:59 25° 291° (WNW) 08:29:05 145.730 - 145.750
XW-2A 21 Jul 08:29:13 08:32:16 32° 97° (E) 08:35:17 145.665 - 145.685
FO-29 21 Jul 08:32:15 08:38:18 27° 57° (ENE) 08:44:30 435.910
AAUSAT CUBESAT 2 21 Jul 08:37:16 08:40:28 21° 93° (E) 08:43:39 437.432
XW-2C 21 Jul 08:40:31 08:42:57 17° 295° (WNW) 08:45:22 145.795 - 145.815
DOVE 4 21 Jul 08:43:07 08:45:40 14° 302° (WNW) 08:48:13 437.250
HO-68 21 Jul 08:45:39 08:52:50 72° 104° (ESE) 08:59:58 435.675
UWE-3 21 Jul 08:53:10 08:56:57 31° 96° (E) 09:00:39 435.000/436.395/437.385
CUTE 1.7 + AOD 2 21 Jul 08:53:22 08:57:37 76° 284° (WNW) 09:01:50 437.475
LilacSat-2 21 Jul 09:00:04 09:00:45 10° 298° (WNW) 09:01:26 437.200
UNISAT 6 21 Jul 09:01:26 09:03:55 14° 61° (ENE) 09:06:23 437.425
CUTE-I 21 Jul 09:06:11 09:10:22 24° 298° (WNW) 09:14:32 437.470
NUDT-PHONESAT 21 Jul 09:08:03 09:09:04 11° 298° (WNW) 09:10:04 437.300
SEEDS 21 Jul 09:14:31 09:18:43 70° 285° (WNW) 09:22:54 437.485
ZACube-1 21 Jul 09:17:20 09:21:04 31° 96° (E) 09:24:45 437.345
SO-50 21 Jul 09:19:00 09:23:10 35° 314° (NW) 09:27:21 436.795
CUBEBUG 2 21 Jul 09:21:29 09:25:50 75° 285° (WNW) 09:30:01 437.445
YUBILEINY 21 Jul 09:22:34 09:27:42 17° 285° (WNW) 09:32:49 435.215
PCSat 21 Jul 09:27:12 09:29:31 13° 329° (NNW) 09:31:52 145.827
TIGRISAT 21 Jul 09:45:01 09:49:11 33° 69° (ENE) 09:53:20 435.000
Oscar 11 21 Jul 09:51:27 09:55:41 51° 100° (E) 09:59:53 .
AO-73 21 Jul 10:00:03 10:04:15 84° 106° (ESE) 10:08:22 145.935
XW-2A 21 Jul 10:02:45 10:04:44 15° 294° (WNW) 10:06:43 145.665 - 145.685
M-CUBED/EXP-1 PRIME 21 Jul 10:10:32 10:13:55 44° 65° (ENE) 10:17:35 437.505
AAUSAT CUBESAT 2 21 Jul 10:12:12 10:16:00 35° 290° (WNW) 10:19:48 437.432
FO-29 21 Jul 10:14:58 10:22:28 79° 257° (WSW) 10:30:25 435.910
PRISM 21 Jul 10:19:59 10:24:02 70° 74° (ENE) 10:28:09 437.425
DELFI C3 21 Jul 10:20:51 10:24:17 27° 95° (E) 10:27:42 145.870
EO-88 21 Jul 10:21:27 10:23:46 16° 92° (E) 10:26:03 145.990 - 145.960
UWE-3 21 Jul 10:29:50 10:33:16 24° 294° (WNW) 10:36:39 435.000/436.395/437.385
HO-68 21 Jul 10:34:18 10:39:56 26° 304° (WNW) 10:45:32 435.675
UNISAT 6 21 Jul 10:35:23 10:40:04 72° 258° (WSW) 10:44:42 437.425
AIST 2D 21 Jul 10:43:05 10:45:00 14° 65° (ENE) 10:46:55 435.315
EO-79 21 Jul 10:47:41 10:48:13 10° 59° (ENE) 10:48:45 145.935-145.965
ZACube-1 21 Jul 10:53:52 10:57:13 24° 293° (WNW) 11:00:32 437.345
TIGRISAT 21 Jul 11:21:53 11:25:52 27° 265° (W) 11:29:50 435.000
Oscar 11 21 Jul 11:28:39 11:31:25 17° 297° (WNW) 11:34:10 .
AO-73 21 Jul 11:39:25 11:39:48 10° 301° (WNW) 11:40:10 145.935
M-CUBED/EXP-1 PRIME 21 Jul 11:46:50 11:48:41 14° 265° (W) 11:50:37 437.505
POLYITAN 1 21 Jul 11:52:47 11:56:53 47° 71° (ENE) 12:01:00 437.675
ESTCUBE 1 21 Jul 11:53:14 11:56:28 19° 92° (E) 11:59:42 437.505/2401.250
EO-88 21 Jul 11:54:13 11:57:34 35° 289° (WNW) 12:00:53 145.990 - 145.960
DELFI C3 21 Jul 11:55:38 11:58:58 26° 292° (WNW) 12:02:17 145.870
DUCHIFAT 1 21 Jul 11:57:09 12:01:09 42° 71° (ENE) 12:05:10 145.980
PRISM 21 Jul 11:59:07 11:59:48 10° 271° (W) 12:00:27 437.425
FO-29 21 Jul 12:04:16 12:08:41 16° 277° (W) 12:13:14 435.910
QB50P2 21 Jul 12:05:21 12:09:37 71° 74° (ENE) 12:13:53 145.880/145.840
LO-87 21 Jul 12:12:47 12:16:19 47° 99° (E) 12:19:47 145.935 - 145.965
AIST 2D 21 Jul 12:14:36 12:17:53 38° 262° (W) 12:21:10 435.315
EO-79 21 Jul 12:19:00 12:23:16 90° 124° (SE) 12:27:34 145.935-145.965
NANOSAT C BR1 21 Jul 12:21:58 12:26:14 88° 71° (ENE) 12:30:31 145.865
Gurwin Techsat 1B 21 Jul 12:26:33 12:27:29 10° 54° (NE) 12:28:25 435.225
Oscar 19 21 Jul 12:32:49 12:36:07 18° 60° (ENE) 12:39:25 437.125/150
BUGSAT 1 21 Jul 12:43:35 12:47:33 40° 70° (ENE) 12:51:31 437.445
SPROUT 21 Jul 12:46:42 12:49:34 17° 92° (E) 12:52:26 437.525
NO-84 21 Jul 12:54:48 12:57:37 32° 133° (SE) 13:00:40 435.350 FM
VELOX 1 21 Jul 12:58:06 13:01:27 20° 93° (E) 13:04:46 145.980
AO-85 21 Jul 13:14:40 13:15:50 11° 110° (ESE) 13:16:59 145.980
DX 1 21 Jul 13:20:24 13:20:40 10° 88° (E) 13:20:58 434.975-435.025
BEESAT 3 21 Jul 13:23:31 13:25:25 13° 109° (ESE) 13:27:20 437.485
ESTCUBE 1 21 Jul 13:29:11 13:33:29 45° 289° (WNW) 13:37:48 437.505/2401.250
POLYITAN 1 21 Jul 13:30:07 13:32:54 17° 268° (W) 13:35:42 437.675
DUCHIFAT 1 21 Jul 13:34:00 13:37:00 19° 268° (W) 13:40:00 145.980
QB50P2 21 Jul 13:44:34 13:45:52 11° 271° (W) 13:47:11 145.880/145.840
LO-87 21 Jul 13:47:36 13:49:20 13° 296° (WNW) 13:51:03 145.935 - 145.965
50 SAT 21 Jul 13:55:28 13:58:36 32° 98° (E) 14:01:43 437.505
AO-7 21 Jul 13:56:58 14:03:12 24° 50° (NE) 14:09:27 .
Gurwin Techsat 1B 21 Jul 14:01:09 14:06:25 66° 72° (ENE) 14:11:43 435.225
UKube-1 21 Jul 14:09:15 14:12:44 23° 95° (E) 14:16:12 .
Oscar 19 21 Jul 14:09:47 14:14:53 69° 258° (WSW) 14:20:01 437.125/150
ITAMSAT 1 21 Jul 14:15:53 14:18:19 13° 56° (NE) 14:20:46 435.822/435.867
BUGSAT 1 21 Jul 14:19:58 14:23:03 19° 267° (W) 14:26:09 437.445
SPROUT 21 Jul 14:21:37 14:25:42 44° 289° (WNW) 14:29:45 437.525
SO-50 21 Jul 14:29:25 14:30:41 11° 27° (NNE) 14:31:55 436.795
NO-84 21 Jul 14:32:03 14:35:04 33° 333° (NNW) 14:38:20 435.350 FM
VELOX 1 21 Jul 14:33:50 14:38:03 42° 290° (WNW) 14:42:15 145.980
PCSat 21 Jul 14:42:31 14:47:26 33° 48° (NE) 14:52:19 145.827
AO-85 21 Jul 14:51:41 14:55:39 70° 305° (NW) 14:59:35 145.980
DX 1 21 Jul 14:53:01 14:57:25 81° 285° (WNW) 15:01:49 434.975-435.025
BEESAT 3 21 Jul 14:58:30 15:02:28 64° 307° (NW) 15:06:30 437.485
